Weather History for Harbor Springs, MI

Change the Weather History Date:

Thursday, February 28, 2013

  Actual Average (KPLN) Record (KPLN)
Temperature  
Mean Temperature 28 °F -  
Max Temperature 32 °F 32 °F 51 °F (1998)
Min Temperature 21 °F 11 °F -33 °F (2014)
Degree Days  
Heating Degree Days 38    
Moisture  
Dew Point 23 °F    
Average Humidity 76    
Maximum Humidity 91    
Minimum Humidity 62    
Precipitation  
Precipitation 0.00 in - - ()
Sea Level Pressure  
Sea Level Pressure 29.87 in    
Wind  
Wind Speed 10 mph (NNE)    
Max Wind Speed 15 mph    
Max Gust Speed 23 mph    
Visibility 8 miles    
Events Snow    
Averages and records for this station are not official NWS values.
T = Trace of Precipitation, MM = Missing Value Source: NWS Daily Summary

Daily Weather History Graph

Daily Weather History Graph

Search for Another Location

Airport:

Trip Planner

Search our weather history database for the weather conditions in past years. The results will help you decide how hot, cold, wet, or windy it might be!

Date:

Astronomy

Feb. 28, 2013 Rise Set
Actual Time 7:19 AM EST 6:25 PM EST
Civil Twilight 6:49 AM EST 6:55 PM EST
Nautical Twilight 6:15 AM EST 7:29 PM EST
Astronomical Twilight 5:41 AM EST 8:04 PM EST
Moon 10:04 PM EST 8:17 AM EST
Length of Visible Light 12h 05m
Length of Day
11h 06m
Waning Gibbous, 91% of the Moon is Illuminated
Feb 28
Waning Gibbous
Mar 4
Last Quarter
Mar 11
New
Mar 19
First Quarter
Mar 27
Full

Hourly Weather History & Observations

Time (EST) Temp. Windchill Dew Point Humidity Pressure Visibility Wind Dir Wind Speed Gust Speed Precip Events Conditions
12:15 AM 32.9 °F 25.3 °F 30.2 °F 90% 29.69 in 5.0 mi NNE 9.2 mph 20.7 mph N/A   Overcast
12:54 AM 32.9 °F 23.7 °F 30.2 °F 90% 29.69 in 5.0 mi North 12.7 mph 18.4 mph N/A Snow Light Snow
1:15 AM 32.9 °F 23.7 °F 30.2 °F 90% 29.69 in 3.0 mi North 12.7 mph 23.0 mph N/A Snow Light Snow
1:34 AM 32.9 °F 24.7 °F 30.2 °F 90% 29.70 in 2.5 mi North 10.4 mph - N/A Snow Light Snow
1:54 AM 32.9 °F 26.7 °F 30.6 °F 91% 29.70 in 2.0 mi North 6.9 mph 16.1 mph N/A Snow Light Snow
2:15 AM 32.9 °F 26.7 °F 30.2 °F 90% 29.71 in 3.0 mi North 6.9 mph 16.1 mph N/A Snow Light Snow
2:34 AM 32.7 °F 24.5 °F 30.2 °F 90% 29.71 in 4.0 mi North 10.4 mph - N/A Snow Light Snow
2:54 AM 32.9 °F 25.3 °F 30.2 °F 90% 29.71 in 2.5 mi North 9.2 mph 19.6 mph N/A Snow Light Snow
3:15 AM 32.9 °F 24.7 °F 30.2 °F 90% 29.71 in 4.0 mi NNE 10.4 mph 16.1 mph N/A Snow Light Snow
3:34 AM 32.9 °F 25.3 °F 29.5 °F 87% 29.71 in 7.0 mi North 9.2 mph 16.1 mph N/A   Overcast
3:54 AM 32.7 °F 24.5 °F 29.3 °F 87% 29.71 in 7.0 mi North 10.4 mph 16.1 mph N/A Snow Light Snow
4:14 AM 32.9 °F 24.1 °F 28.9 °F 85% 29.72 in 10.0 mi North 11.5 mph 20.7 mph N/A Snow Light Snow
4:34 AM 32.9 °F 23.7 °F 28.4 °F 84% 29.72 in 10.0 mi North 12.7 mph 20.7 mph N/A   Overcast
4:54 AM 32.9 °F 24.1 °F 28.4 °F 84% 29.73 in 10.0 mi North 11.5 mph 19.6 mph N/A   Overcast
5:14 AM 32.9 °F 24.1 °F 28.2 °F 83% 29.74 in 10.0 mi North 11.5 mph 17.3 mph N/A   Overcast
5:34 AM 32.9 °F 25.3 °F 28.2 °F 83% 29.75 in 10.0 mi North 9.2 mph 17.3 mph N/A   Overcast
5:54 AM 31.5 °F 23.5 °F 27.0 °F 83% 29.75 in 10.0 mi North 9.2 mph 16.1 mph N/A   Overcast
6:14 AM 31.1 °F 23.7 °F 26.8 °F 84% 29.76 in 10.0 mi North 8.1 mph - N/A   Overcast
6:34 AM 31.1 °F 24.5 °F 26.8 °F 84% 29.77 in 7.0 mi NNW 6.9 mph - N/A Snow Light Snow
6:55 AM 30.6 °F 24.7 °F 26.6 °F 85% 29.78 in 5.0 mi North 5.8 mph - N/A Snow Light Snow
7:14 AM 30.6 °F 23.1 °F 26.4 °F 85% 29.78 in 10.0 mi North 8.1 mph - N/A Snow Light Snow
7:34 AM 30.6 °F 23.8 °F 26.4 °F 85% 29.79 in 10.0 mi North 6.9 mph - N/A   Overcast
7:55 AM 30.6 °F 24.7 °F 26.6 °F 85% 29.80 in 7.0 mi North 5.8 mph - N/A   Overcast
8:14 AM 30.6 °F 22.4 °F 26.4 °F 85% 29.81 in 7.0 mi NNE 9.2 mph - N/A Snow Light Snow
8:34 AM 30.6 °F 24.7 °F 26.2 °F 84% 29.82 in 5.0 mi NNE 5.8 mph 17.3 mph N/A Snow Light Snow
8:55 AM 30.6 °F 23.1 °F 26.1 °F 83% 29.83 in 4.0 mi North 8.1 mph 18.4 mph N/A Snow Light Snow
9:14 AM 30.6 °F 22.4 °F 25.9 °F 83% 29.83 in 5.0 mi North 9.2 mph - N/A Snow Light Snow
9:34 AM 30.6 °F 23.8 °F 26.1 °F 83% 29.83 in 5.0 mi North 6.9 mph - N/A   Overcast
9:55 AM 30.6 °F 22.4 °F 25.5 °F 82% 29.84 in 10.0 mi North 9.2 mph - N/A   Overcast
10:14 AM 30.6 °F 22.4 °F 24.6 °F 79% 29.84 in 10.0 mi NNE 9.2 mph 17.3 mph N/A   Overcast
10:34 AM 30.6 °F 20.7 °F 23.7 °F 76% 29.84 in 10.0 mi North 12.7 mph 19.6 mph N/A   Overcast
10:54 AM 30.6 °F 23.1 °F 23.2 °F 74% 29.85 in 10.0 mi North 8.1 mph 18.4 mph N/A   Overcast
11:14 AM 30.6 °F 20.2 °F 22.6 °F 72% 29.86 in 10.0 mi NNE 13.8 mph 18.4 mph N/A   Overcast
11:34 AM 30.6 °F 21.8 °F 22.6 °F 72% 29.86 in 10.0 mi NNE 10.4 mph 17.3 mph N/A   Overcast
11:54 AM 30.6 °F 19.8 °F 22.1 °F 71% 29.87 in 10.0 mi NE 15.0 mph 21.9 mph N/A   Overcast
12:14 PM 30.9 °F 23.5 °F 22.1 °F 70% 29.88 in 10.0 mi NNE 8.1 mph - N/A   Overcast
12:35 PM 30.2 °F 20.8 °F 21.6 °F 70% 29.88 in 10.0 mi NNE 11.5 mph 20.7 mph N/A   Overcast
12:54 PM 30.6 °F 22.4 °F 21.9 °F 70% 29.88 in 10.0 mi NE 9.2 mph 18.4 mph N/A   Overcast
1:14 PM 29.7 °F 20.7 °F 20.8 °F 70% 29.89 in 10.0 mi NE 10.4 mph 18.4 mph N/A   Overcast
1:35 PM 29.8 °F 20.9 °F 20.8 °F 69% 29.89 in 10.0 mi NNE 10.4 mph - N/A   Overcast
1:54 PM 29.5 °F 21.1 °F 21.0 °F 71% 29.90 in 10.0 mi NE 9.2 mph - N/A   Overcast
2:14 PM 29.3 °F 19.6 °F 19.9 °F 68% 29.90 in 10.0 mi NE 11.5 mph 18.4 mph N/A   Overcast
2:35 PM 29.7 °F 20.1 °F 20.3 °F 68% 29.91 in 10.0 mi NE 11.5 mph 18.4 mph N/A   Overcast
2:54 PM 29.7 °F 22.8 °F 20.3 °F 68% 29.91 in 10.0 mi NNE 6.9 mph - N/A   Overcast
3:14 PM 29.7 °F 22.8 °F 20.5 °F 69% 29.92 in 10.0 mi North 6.9 mph - N/A   Overcast
3:35 PM 29.5 °F 21.1 °F 20.1 °F 68% 29.92 in 10.0 mi North 9.2 mph 17.3 mph N/A   Overcast
3:54 PM 28.9 °F 21.1 °F 19.6 °F 68% 29.93 in 10.0 mi North 8.1 mph 17.3 mph N/A   Overcast
4:14 PM 28.8 °F 22.6 °F 19.0 °F 67% 29.94 in 10.0 mi North 5.8 mph - N/A   Overcast
4:35 PM 28.8 °F 19.5 °F 18.7 °F 66% 29.94 in 10.0 mi North 10.4 mph - N/A   Overcast
4:54 PM 29.3 °F 19.6 °F 19.2 °F 66% 29.95 in 10.0 mi NNW 11.5 mph 17.3 mph N/A   Overcast
5:14 PM 28.8 °F 23.7 °F 18.9 °F 67% 29.96 in 10.0 mi NNW 4.6 mph - N/A   Overcast
5:35 PM 28.6 °F 19.3 °F 18.1 °F 65% 29.96 in 10.0 mi North 10.4 mph 16.1 mph N/A   Overcast
5:54 PM 28.4 °F 20.4 °F 17.4 °F 63% 29.97 in 10.0 mi North 8.1 mph - N/A   Overcast
6:14 PM 28.4 °F 21.2 °F 16.9 °F 62% 29.98 in 10.0 mi North 6.9 mph - N/A   Overcast
7:14 PM 28.0 °F 18.6 °F 16.5 °F 62% 30.00 in 10.0 mi North 10.4 mph 19.6 mph N/A   Overcast
7:35 PM 28.0 °F 18.6 °F 16.7 °F 62% 30.01 in 10.0 mi North 10.4 mph - N/A   Scattered Clouds
7:54 PM 28.0 °F 20.0 °F 17.2 °F 64% 30.02 in 10.0 mi North 8.1 mph 16.1 mph N/A   Scattered Clouds
8:14 PM 28.0 °F 20.0 °F 17.4 °F 64% 30.03 in 10.0 mi North 8.1 mph - N/A   Mostly Cloudy
8:35 PM 26.2 °F 17.8 °F 15.8 °F 65% 30.03 in 10.0 mi NNE 8.1 mph - N/A   Scattered Clouds
8:54 PM 26.1 °F 18.4 °F 15.8 °F 65% 30.04 in 10.0 mi NNE 6.9 mph - N/A   Scattered Clouds
9:14 PM 25.5 °F 19.9 °F 15.6 °F 66% 30.04 in 10.0 mi North 4.6 mph - N/A   Mostly Cloudy
9:35 PM 25.5 °F 18.7 °F 15.8 °F 67% 30.04 in 10.0 mi NNE 5.8 mph - N/A   Overcast
9:54 PM 25.5 °F 16.9 °F 15.4 °F 66% 30.05 in 10.0 mi NNE 8.1 mph - N/A   Overcast
10:14 PM 25.5 °F 14.3 °F 14.9 °F 64% 30.06 in 10.0 mi NNE 12.7 mph 18.4 mph N/A   Overcast
10:34 PM 24.6 °F 13.8 °F 14.4 °F 65% 30.06 in 10.0 mi NNE 11.5 mph 19.6 mph N/A   Overcast
10:54 PM 23.2 °F 10.3 °F 13.5 °F 66% 30.07 in 10.0 mi NNE 15.0 mph 19.6 mph N/A   Overcast
11:15 PM 23.0 °F 11.1 °F 13.5 °F 67% 30.07 in 10.0 mi NNE 12.7 mph 18.4 mph N/A   Overcast
11:54 PM 21.2 °F 8.9 °F 12.2 °F 68% 30.08 in 10.0 mi NNE 12.7 mph 18.4 mph N/A   Overcast